Location: Brabourne
(51.1333°N, 1.0000°E)
Time: 06:41:16
(UTC+00:00)

USA 281 - Pass Details

Date: 20 June 2021
Orbit: 1078 x 1081 km, 106.0° (Epoch: 18 July)

Event Time Altitude Azimuth Distance (km) Brightness Sun altitude
Rises 02:10:12 0° 144° (SE) 3,870 5.9 -9.9°
Reaches altitude 10° 02:12:43 10° 143° (SE) 2,917 5.3 -9.7°
Maximum altitude 02:19:15 77° 59° (ENE) 1,115 3.5 -9.2°
Drops below altitude 10° 02:25:50 10° 335° (NNW) 2,934 6.0 -8.6°
Sets 02:28:22 0° 334° (NNW) 3,893 6.6 -8.4°
